Tracking 19634 objects as of 21-May-2019
HD Live streaming from Space Station
objects crossing your sky now

CZ-4 DEB

Track CZ-4 DEB now!
10-day predictions


NORAD ID: 26441
Int'l Code: 1999-057KN
Perigee: 641.6 km
Apogee: 728.1 km
Inclination: 98.3 °
Period: 98.3 minutes
Semi major axis: 7055 km
RCS: 0.0092 m2 (small)
Launch date: October 14, 1999
Source: People's Republic of China (PRC)
Launch site: Taiyaun Space Center, China (TSC)

Note: This is SATELLITE DEBRIS
aabbcc
Your satellite tracking list
Your tracking list is empty




NASA's NSSDC Master Catalog

Two Line Element Set (TLE):
1 26441U 99057KN  19140.71192301  .00000662  00000-0  13035-3 0  9995
2 26441  98.3141 140.0762 0061308  15.6581 344.6499 14.64813616  9243
Source of the keplerian elements: AFSPC